Flag Weather past 2 weeks in Eberswalde, Brandenburg, Germany

Now
39 °F

Passing clouds.


Feels Like: 32 °F
Forecast: 33 / 38 °F
Wind: 12 mph from Southeast

Location: Berlin-Tegel

Current Time: Nov 26, 2014 at 11:01:36 PM

Latest Report: Nov 26, 2014 at 10:20 PM


Visibility: 5 mi

Pressure: 30.15 "Hg

Humidity: 87%

Dew point: 36 °F

Location of EberswaldeLocation

Historic Weather in Eberswalde — Graph

°F

Eberswalde temperature yesterday

Maximum temperature yesterday: 41 °F (at 10:20 AM)
Minimum temperature yesterday: 36 °F (at 3:20 AM)
Average temperature yesterday: 39 °F

Past Weeks' High & Low Weather Summary

 TemperatureHumidityPressure
High54 °F (Nov 12, 1:20 PM)100% (Nov 11, 10:50 PM)30.36 "Hg (Nov 11, 10:50 PM)
Low36 °F (Nov 25, 3:20 AM)66% (Nov 23, 1:50 PM)29.56 "Hg (Nov 16, 1:20 PM)
Average45 °F89%30.04 "Hg
* Reported Nov 11 9:20 PM — Nov 26 9:50 PM, Eberswalde, Weather by CustomWeather, © 2014

Note: Actual official high and low records may vary slightly from our data, if they occured in-between our weather recording intervals... More about our weather records

Advertising

Eberswalde weather history for previous 24 hours

 ConditionsComfort  
Time TempWeatherWind HumidityBarometerVisibility
9:50 PM
Nov 26
39 °FPassing clouds.14 mph93%30.15 "Hg5 mi
9:20 PM39 °FPassing clouds.14 mph93%30.15 "Hg6 mi
8:50 PM39 °FPassing clouds.13 mph93%30.15 "Hg6 mi
8:20 PM39 °FPassing clouds.13 mph87%30.15 "HgN/A
7:50 PM39 °FPassing clouds.13 mph87%30.15 "HgN/A
7:20 PM37 °FPassing clouds.10 mph93%30.15 "HgN/A
6:50 PM37 °FPassing clouds.12 mph93%30.15 "HgN/A
6:20 PM39 °FPassing clouds.13 mph87%30.18 "HgN/A
5:50 PM39 °FPassing clouds.14 mph87%30.18 "HgN/A
5:20 PM39 °FPassing clouds.12 mph87%30.18 "HgN/A
4:50 PM41 °FPassing clouds.10 mph81%30.18 "HgN/A
4:20 PM41 °FPassing clouds.12 mph81%30.18 "HgN/A
3:50 PM41 °FPartly sunny.12 mph81%30.18 "HgN/A
3:20 PM41 °FPartly sunny.10 mph81%30.21 "HgN/A
2:50 PM41 °FPartly sunny.12 mph81%30.21 "HgN/A
2:20 PM41 °FPartly sunny.10 mph81%30.21 "HgN/A
1:50 PM41 °FPartly sunny.12 mph81%30.21 "HgN/A
1:20 PM41 °FPartly sunny.12 mph87%30.24 "HgN/A
12:50 PM41 °FPartly sunny.10 mph87%30.24 "HgN/A
12:20 PM41 °FPartly sunny.12 mph81%30.24 "HgN/A
11:50 AM41 °FPartly sunny.10 mph87%30.24 "HgN/A
11:20 AM41 °FPartly sunny.10 mph87%30.24 "HgN/A
10:50 AM41 °FPartly sunny.12 mph87%30.27 "HgN/A
10:20 AM41 °FPartly sunny.12 mph87%30.27 "HgN/A
9:50 AM39 °FPartly sunny.12 mph93%30.27 "HgN/A
9:20 AM39 °FPartly sunny.10 mph93%30.27 "HgN/A
8:50 AM39 °FPartly sunny.9 mph93%30.27 "Hg6 mi
8:20 AM39 °FPartly sunny.9 mph93%30.27 "Hg6 mi
7:50 AM39 °FPartly sunny.10 mph93%30.27 "HgN/A
7:20 AM39 °FPassing clouds.7 mph93%30.27 "HgN/A
6:50 AM39 °FPassing clouds.9 mph93%30.27 "HgN/A
6:20 AM39 °FPartly cloudy.10 mph93%30.27 "HgN/A
5:50 AM41 °FPassing clouds.10 mph87%30.27 "HgN/A
5:20 AM41 °FPassing clouds.7 mph87%30.27 "HgN/A
4:20 AM41 °FPassing clouds.7 mph87%30.27 "HgN/A
3:50 AM41 °FPassing clouds.6 mph87%30.30 "HgN/A
3:20 AM41 °FPassing clouds.7 mph87%30.30 "HgN/A
2:50 AM41 °FPassing clouds.6 mph87%30.30 "HgN/A
2:20 AM41 °FPassing clouds.2 mph93%30.30 "HgN/A
1:50 AM39 °FPassing clouds.2 mph93%30.30 "HgN/A
1:20 AM39 °FPassing clouds.1 mph93%30.30 "HgN/A
12:50 AM39 °FPassing clouds.1 mph93%30.33 "HgN/A
12:20 AM39 °FPassing clouds.1 mph93%30.33 "HgN/A
11:50 PM
Nov 25
39 °FPassing clouds.1 mph93%30.33 "HgN/A
11:20 PM39 °FPassing clouds.1 mph93%30.33 "HgN/A
Weather by CustomWeather, © 2014

See weather overviewHow to use our weather pages